Location: ??
(35.1714°N, 128.2806°E)
Time: 15:32:12
(UTC+00:00)

Cosmos 2278 - Pass Details

Date: 29 October 2020
Orbit: 841 x 851 km, 71.1° (Epoch: 01 December)

Event Time Altitude Azimuth Distance (km) Brightness Sun altitude
Exits shadow 20:11:46 - 340° (NNW) 3,073 6.4 -19.8°
Reaches altitude 10° 20:13:22 10° 341° (NNW) 2,464 5.9 -19.5°
Maximum altitude 20:19:02 83° 69° (ENE) 852 3.7 -18.3°
Drops below altitude 10° 20:24:40 10° 157° (SSE) 2,450 6.5 -17.2°
Sets 20:27:06 0° 158° (SSE) 3,382 7.2 -16.7°
